Content
SEND FEEDBACK

Daily
Averages
Monthly
Summary
United States of America

WETHERSFIELD, CONNECTICUT


Home > North America > United States > Connecticut
Elevation: 1 meter     Latitude: 41 44N     Longitude: 072 39W

WEATHER
 
SELECT A DAY
Number of Records: 202,089;   Date Range: 1/1/95 - 7/23/14
 
SHARE

PRINT THIS DATA

[ ← Previous Day ]
WEATHER ALMANAC - 13 FEBRUARY, 2013
[ Next Day → ]
[ °F ]   °C
Weather ElementAverageHighLow
Temperature2.9 °C5 °C (2:53 pm)1.7 °C (2:53 am)
Dewpoint-5.4 °C-3.3 °C (7:53 pm)-6.7 °C (2:53 am)
Humidity55.3 %67 % (7:53 pm)43 % (3:53 pm)
Barometer1009.8 hPa1013.2 hPa (2:53 am)1006.4 hPa (6:53 pm)
Wind Speed6.3 km/h11.1 km/h (6:53 am)
Weather ElementAverage
Visibility16.1 km
Wind DirectionSSE (153.9 °)

Weather ElementTotal
Precipitation---
Heating Degree Days15 (Base 18.3)
Averaged from 23 records on 13 February, 2013
WEATHER CONDITIONS BREAKOUT
WIND DIRECTION BREAKOUT
WEATHER BY HOUR - 13 FEBRUARY, 2013
[ °F ]   °C
Local TimeTemperatureDewpointHumidityBarometerVisibilityWind DirectionWind SpeedGust SpeedPrecipitationEventsConditions
1:53 AM2.2 °C-6.1 °C55 %1012.5 hPa16.1 kmWNW (300°)7.4 km/hOvercast
2:53 AM1.7 °C-6.7 °C54 %1013.2 hPa16.1 kmWest (260°)9.3 km/hOvercast
3:53 AM1.7 °C-6.1 °C57 %1012.9 hPa16.1 kmWest (280°)7.4 km/hOvercast
4:53 AM1.7 °C-6.1 °C57 %1012.9 hPa16.1 kmWest (280°)7.4 km/hOvercast
5:53 AM1.7 °C-5.6 °C59 %1012.2 hPa16.1 kmNNW (330°)9.3 km/hOvercast
6:53 AM1.7 °C-5.6 °C59 %1011.9 hPa16.1 kmNW (320°)11.1 km/hOvercast
7:53 AM1.7 °C-5.6 °C59 %1012.5 hPa16.1 kmWNW (290°)7.4 km/hOvercast
8:53 AM2.2 °C-5.6 °C57 %1012.5 hPa16.1 kmCalmOvercast
9:53 AM3.3 °C-5.6 °C53 %1011.9 hPa16.1 kmNorth (10°)5.6 km/hPartly Cloudy
10:53 AM3.9 °C-6.1 °C49 %1011.5 hPa16.1 kmNorth (10°)7.4 km/hPartly Cloudy
11:53 AM3.9 °C-6.1 °C49 %1011.2 hPa16.1 kmCalmClear
12:53 PM3.9 °C-5.6 °C50 %1010.5 hPa16.1 kmSSE (150°)9.3 km/hClear
1:53 PM4.4 °C-5.6 °C49 %1009.1 hPa16.1 kmSE (140°)7.4 km/hClear
2:53 PM5 °C-6.1 °C45 %1007.8 hPa16.1 kmSE (130°)5.6 km/hClear
3:53 PM5 °C-6.7 °C43 %1007.8 hPa16.1 kmCalmClear
4:53 PM4.4 °C-6.1 °C47 %1007.1 hPa16.1 kmSSE (150°)5.6 km/hClear
5:53 PM3.3 °C-5 °C55 %1006.8 hPa16.1 kmCalmClear
6:53 PM2.2 °C-3.9 °C64 %1006.4 hPa16.1 kmENE (60°)5.6 km/hMostly Cloudy
7:53 PM2.2 °C-3.3 °C67 %1006.4 hPa16.1 kmSE (130°)5.6 km/hOvercast
8:53 PM2.2 °C-3.3 °C67 %1006.4 hPa16.1 kmCalmScattered Clouds
9:53 PM2.8 °C-4.4 °C59 %1006.4 hPa16.1 kmNorth (10°)11.1 km/hOvercast
10:53 PM2.8 °C-5 °C57 %1006.4 hPa16.1 kmNNW (340°)11.1 km/hOvercast
11:53 PM2.2 °C-4.4 °C62 %1006.8 hPa16.1 kmNorth (350°)11.1 km/hOvercast
Hourly data recorded from KHFD, located 0 kilometers away from Wethersfield, Connecticut







STORIES FROM OUR PARTNERS